Date,TemperatureHighF,TemperatureAvgF,TemperatureLowF,DewpointHighF,DewpointAvgF,DewpointLowF,HumidityHigh,HumidityAvg,HumidityLow,PressureMaxIn,PressureMinIn,WindSpeedMaxMPH,WindSpeedAvgMPH,GustSpeedMaxMPH,PrecipitationSumIn
2013-1-1,30,26,24,22,19,18,88,74,60,30.58,30.41,6,2,9,0.00
2013-1-2,29,25,22,20,18,16,85,76,60,30.62,30.56,4,2,6,0.00
2013-1-3,26,18,12,16,14,10,91,81,67,30.56,30.41,5,2,7,0.00
2013-1-4,25,21,15,21,17,12,88,84,76,30.44,30.39,4,2,5,0.00
2013-1-5,36,26,18,26,22,17,94,84,65,30.48,30.25,6,2,9,0.00
2013-1-6,42,32,27,29,25,22,94,77,52,30.25,30.10,10,3,14,0.00
2013-1-7,39,33,30,34,31,26,99,92,74,30.13,29.88,13,2,17,0.18
2013-1-8,40,35,31,34,28,22,99,77,47,30.19,29.90,12,3,23,0.02
2013-1-9,33,32,32,32,32,32,99,99,99,30.03,29.99,0,0,0,0.00
2013-1-10,36,28,25,33,16,8,97,60,47,30.02,29.83,14,7,20,0.00
2013-1-11,31,21,8,8,5,1,78,51,30,30.27,30.01,11,6,17,0.00
2013-1-12,32,16,9,16,10,3,86,76,47,30.33,30.23,5,2,8,0.00
2013-1-13,27,16,8,14,10,5,90,79,49,30.42,30.33,5,2,7,0.00
2013-1-14,24,20,17,17,16,14,91,85,73,30.46,30.32,4,2,6,0.00
2013-1-15,29,22,19,21,18,16,91,84,68,30.57,30.45,4,2,6,0.00
2013-1-16,38,22,14,26,18,11,95,85,58,30.56,30.52,5,2,9,0.02
2013-1-17,32,20,11,26,17,9,98,90,62,30.58,30.35,5,2,6,0.48
2013-1-18,46,23,15,32,19,14,95,86,45,30.36,30.23,5,2,8,0.01
2013-1-19,42,24,14,24,17,12,92,78,45,30.45,30.35,5,2,6,0.01
2013-1-20,40,25,16,21,18,14,92,76,43,30.51,30.42,5,2,8,0.00
2013-1-21,47,27,17,26,20,15,91,77,40,30.42,30.28,4,2,6,0.01
2013-1-22,34,20,10,20,15,8,93,82,57,30.38,30.26,6,2,8,0.00
2013-1-23,33,23,16,24,19,14,94,84,62,30.29,30.06,4,2,6,0.00
2013-1-24,52,35,26,32,26,23,98,71,35,30.28,30.05,12,4,17,0.06
2013-1-25,43,34,28,34,29,24,96,83,64,30.26,30.02,4,2,7,0.00
2013-1-26,42,36,30,38,32,24,99,88,61,30.05,29.95,6,2,10,0.14
2013-1-27,45,30,24,31,26,22,99,83,47,30.03,29.97,11,1,16,0.00
2013-1-28,37,28,21,32,24,19,94,84,57,30.01,29.88,8,2,11,0.04
2013-1-29,38,25,19,24,18,14,94,76,42,30.21,29.93,7,2,10,0.00
2013-1-30,43,33,24,32,25,17,84,72,59,30.21,30.11,13,3,21,0.01
2013-1-31,44,40,36,35,32,28,90,75,60,30.29,30.20,9,4,15,0.00
2013-2-1,53,40,30,34,30,25,94,68,38,30.46,30.20,10,4,16,0.00
2013-2-2,51,35,24,31,27,22,93,75,39,30.53,30.33,7,2,10,0.00
2013-2-3,45,32,22,33,27,21,96,82,58,30.34,30.14,5,2,8,0.00
2013-2-4,45,41,34,32,28,26,86,61,50,30.15,30.08,9,4,20,0.00
2013-2-5,49,38,32,35,30,27,87,72,48,30.11,29.88,15,3,21,0.00
2013-2-6,50,38,27,35,27,24,90,66,40,30.19,29.99,11,4,17,0.01
2013-2-7,43,32,25,32,27,23,94,84,57,30.17,30.05,8,3,11,0.00
2013-2-8,45,33,24,32,27,23,98,81,56,30.17,30.09,7,2,9,0.00
2013-2-9,35,29,23,29,24,19,98,82,63,30.24,30.08,7,2,9,0.00
2013-2-10,40,29,21,29,25,20,99,87,62,30.33,30.23,6,2,8,0.01
2013-2-11,34,28,21,28,24,19,95,85,73,30.27,30.22,5,2,8,0.00
2013-2-12,41,36,30,31,28,25,87,73,56,30.30,30.17,8,3,14,0.00
2013-2-13,53,42,31,34,27,20,87,56,32,30.32,30.10,13,5,19,0.00
2013-2-14,52,34,25,27,22,16,88,64,25,30.54,30.32,9,3,15,0.00
2013-2-15,46,34,25,31,26,21,87,73,49,30.58,30.39,8,2,12,0.00
2013-2-16,40,32,24,36,28,23,98,86,69,30.39,29.95,11,2,15,0.04
2013-2-17,41,36,33,34,28,23,90,71,60,30.17,29.95,10,4,18,0.01
2013-2-18,47,32,21,29,23,18,91,72,44,30.20,29.95,5,2,7,0.00
2013-2-19,44,32,26,29,24,20,93,74,42,29.96,29.82,6,3,9,0.00
2013-2-20,42,32,27,32,26,18,98,78,46,30.05,29.93,8,2,12,0.00
2013-2-21,41,31,24,28,22,18,90,71,42,30.11,30.03,6,2,10,0.00
2013-2-22,41,34,29,32,28,24,90,80,52,30.06,29.73,9,3,12,0.00
2013-2-23,38,34,26,31,22,16,90,65,47,30.24,29.73,13,5,21,0.00
2013-2-24,44,33,22,24,21,18,92,64,38,30.33,30.22,10,3,15,0.00
2013-2-25,45,36,31,27,24,20,81,65,38,30.22,29.97,13,3,19,0.00
2013-2-26,46,36,32,25,22,18,70,56,38,30.36,30.10,10,6,14,0.00
2013-2-27,50,34,25,26,22,17,81,63,30,30.36,30.30,14,3,18,0.00
2013-2-28,43,35,28,32,28,23,91,76,61,30.42,30.33,9,3,12,0.00
2013-3-1,51,42,34,42,37,31,96,83,67,30.43,30.38,6,2,9,0.01
2013-3-2,53,43,32,39,36,31,98,75,49,30.41,30.00,8,2,11,0.00
2013-3-3,44,36,25,39,25,13,97,67,30,30.28,29.88,19,7,41,0.12
2013-3-4,39,28,17,22,16,9,89,64,32,30.43,30.27,9,4,12,0.00
2013-3-5,38,29,16,27,17,12,83,63,37,30.30,30.06,7,4,9,0.00
2013-3-6,39,32,27,32,28,23,96,83,71,30.06,29.84,8,3,11,0.06
2013-3-7,55,39,29,34,29,22,98,73,32,30.18,29.93,9,2,14,0.00
2013-3-8,51,36,21,29,23,18,92,61,38,30.17,30.07,8,3,12,0.00
2013-3-9,52,40,25,27,23,21,85,55,31,30.46,30.16,8,4,12,0.00
2013-3-10,50,37,25,31,25,20,90,64,33,30.48,30.26,12,4,17,0.00
2013-3-11,55,41,31,28,18,-1,81,45,12,30.33,30.24,13,4,18,0.00
2013-3-12,37,33,29,35,28,19,99,82,59,30.32,30.18,3,1,5,0.20
2013-3-13,62,45,35,46,38,34,99,79,41,30.29,30.21,5,2,8,0.02
2013-3-14,56,44,34,39,36,32,96,76,49,30.28,30.09,4,2,7,0.00
2013-3-15,62,52,42,37,31,24,77,47,27,30.21,30.07,14,7,22,0.00
2013-3-16,50,41,31,38,34,30,95,79,58,30.17,29.79,13,4,21,0.07
2013-3-17,48,36,30,36,24,16,95,62,29,30.06,29.72,14,7,25,0.06
2013-3-18,47,34,27,26,21,17,91,59,34,30.16,30.02,13,4,17,0.00
2013-3-19,47,34,22,25,16,0,83,52,16,30.38,30.10,13,4,16,0.00
2013-3-20,52,38,30,40,30,17,92,73,57,30.10,29.67,12,4,21,0.12
2013-3-21,45,37,32,33,20,11,89,52,26,30.08,29.80,15,7,24,0.01
2013-3-22,44,31,24,27,21,13,93,68,29,30.31,30.07,10,3,15,0.00
2013-3-23,42,29,18,25,19,14,92,69,36,30.41,30.31,6,2,8,0.05
2013-3-24,43,29,20,24,18,15,86,66,37,30.46,30.32,10,4,14,0.00
2013-3-25,49,32,17,22,18,13,87,59,26,30.33,30.14,9,4,12,0.00
2013-3-26,56,39,23,27,22,19,85,55,26,30.16,30.07,9,4,12,0.00
2013-3-27,56,42,27,36,28,23,86,60,31,30.15,30.10,9,3,11,0.00
2013-3-28,58,45,35,41,37,33,96,76,47,30.21,30.14,10,3,15,0.00
2013-3-29,58,44,37,46,39,36,99,82,50,30.32,30.21,11,3,12,0.18
2013-3-30,64,47,30,40,32,24,99,63,27,30.39,30.23,12,4,17,0.01
2013-3-31,70,50,32,34,29,22,87,52,17,30.26,30.12,6,3,10,0.00
2013-4-1,73,50,33,33,28,12,84,49,11,30.19,30.07,8,4,11,0.00
2013-4-2,73,51,33,39,33,28,84,54,21,30.19,30.08,13,4,23,0.00
2013-4-3,68,51,41,43,36,26,83,59,25,30.22,30.14,12,4,16,0.00
2013-4-4,65,48,33,47,36,30,92,67,28,30.18,29.89,6,3,8,0.05
2013-4-5,57,50,45,44,40,36,94,69,49,30.01,29.90,13,4,21,0.14
2013-4-6,60,47,38,42,36,24,90,67,29,30.01,29.95,14,4,21,0.01
2013-4-7,49,39,31,40,34,28,97,82,53,29.98,29.78,10,3,13,0.22
2013-4-8,47,35,28,31,19,11,99,58,25,30.37,29.97,11,4,17,0.15
2013-4-9,50,35,22,28,20,14,81,55,29,30.48,30.31,9,4,12,0.00
2013-4-10,51,42,33,43,34,27,88,74,54,30.32,29.92,13,3,18,0.05
2013-4-11,53,44,34,38,32,26,90,63,36,30.18,30.02,15,6,25,0.01
2013-4-12,52,41,28,38,30,26,95,68,39,30.20,29.76,12,4,17,0.02
2013-4-13,50,39,32,38,29,17,99,70,29,29.90,29.63,16,5,27,0.14
2013-4-14,48,37,30,32,21,8,99,57,25,30.10,29.89,16,6,21,0.13
2013-4-15,43,33,24,14,9,3,62,38,19,30.30,30.09,10,4,16,0.00
2013-4-16,44,33,24,18,10,-6,67,40,16,30.46,30.29,13,6,19,0.00
2013-4-17,50,35,20,22,13,6,71,43,19,30.48,30.33,11,4,14,0.00
2013-4-18,59,43,26,27,22,19,78,48,24,30.36,30.27,13,6,20,0.00
2013-4-19,58,46,40,44,37,27,88,72,49,30.27,30.00,10,4,16,0.09
2013-4-20,63,49,38,42,37,29,97,69,30,30.15,30.02,16,6,26,0.33
2013-4-21,38,32,24,37,26,14,98,79,47,30.42,30.13,10,3,14,0.22
2013-4-22,47,33,18,24,17,4,82,55,20,30.57,30.42,13,5,18,0.01
2013-4-23,51,37,23,32,26,21,91,67,35,30.45,30.30,8,3,11,0.00
2013-4-24,67,46,27,34,26,12,94,54,13,30.38,30.09,12,5,20,0.00
2013-4-25,72,56,34,35,26,12,80,36,10,30.16,30.00,12,5,18,0.00
2013-4-26,78,57,34,38,30,12,82,43,10,30.25,30.15,13,4,21,0.00
2013-4-27,71,58,42,38,30,11,74,38,11,30.20,30.07,21,6,29,0.00
2013-4-28,65,55,50,38,32,22,62,43,22,30.13,29.93,14,7,21,0.00
2013-4-29,56,45,32,37,31,22,90,60,29,30.00,29.74,22,8,35,0.25
2013-4-30,51,36,26,33,27,20,94,72,32,30.40,29.99,9,3,14,0.01
2013-5-1,53,40,26,33,26,20,93,63,30,30.66,30.40,11,4,17,0.00
2013-5-2,64,47,28,33,25,17,80,47,17,30.69,30.38,13,4,17,0.00
2013-5-3,63,53,43,45,36,28,86,54,33,30.41,30.35,9,3,14,0.04
2013-5-4,71,53,36,37,28,11,86,47,11,30.44,30.29,8,4,12,0.00
2013-5-5,79,57,36,36,26,11,84,41,10,30.31,30.08,7,4,11,0.00
2013-5-6,81,60,39,37,28,13,75,38,10,30.14,29.95,7,4,10,0.00
2013-5-7,80,66,42,36,26,17,76,28,10,30.18,29.98,12,5,18,0.00
2013-5-8,80,62,43,46,35,23,72,42,14,30.24,30.13,8,4,12,0.00
2013-5-9,84,67,48,45,39,26,81,43,13,30.26,30.15,7,4,11,0.00
2013-5-10,82,66,47,40,29,15,65,32,10,30.42,30.20,8,4,13,0.00
2013-5-11,86,65,48,48,39,26,74,43,14,30.35,30.16,8,4,12,0.00
2013-5-12,90,68,50,49,44,34,84,48,16,30.22,30.06,9,3,19,0.00
2013-5-13,80,65,52,52,45,36,81,51,22,30.13,29.87,20,5,33,0.05
2013-5-14,69,56,43,38,24,8,62,32,10,30.23,30.08,14,5,21,0.00
2013-5-15,68,52,34,39,28,12,80,46,13,30.24,30.04,10,4,14,0.00
2013-5-16,65,54,46,50,42,37,94,67,42,30.09,30.01,9,3,12,0.18
2013-5-17,72,54,40,48,43,34,97,70,28,30.10,30.00,12,4,17,0.01
2013-5-18,67,52,46,52,48,45,99,88,52,30.22,30.09,6,2,9,0.58
2013-5-19,66,53,45,52,48,45,99,85,51,30.35,30.22,6,2,11,0.09
2013-5-20,78,59,46,52,46,35,99,68,21,30.40,30.15,6,2,8,0.00
2013-5-21,81,62,43,51,43,31,94,56,18,30.16,29.81,13,4,19,0.04
2013-5-22,69,52,38,52,44,37,98,76,36,30.17,29.80,13,3,23,0.92
2013-5-23,60,45,34,41,37,34,99,78,41,30.16,30.08,6,2,10,0.28
2013-5-24,64,49,36,44,38,32,98,69,33,30.14,29.99,11,4,17,0.01
2013-5-25,65,51,35,39,35,30,94,58,28,30.15,30.11,8,3,11,0.00
2013-5-26,76,57,36,47,35,17,92,51,12,30.16,29.98,6,3,10,0.00
2013-5-27,72,57,47,51,45,40,86,66,37,30.05,29.93,10,3,14,0.07
2013-5-28,67,55,49,52,49,45,99,82,54,29.96,29.91,6,2,10,0.22
2013-5-29,74,58,45,50,42,30,99,64,20,29.97,29.80,14,4,24,0.04
2013-5-30,64,55,46,48,42,35,99,67,39,30.19,29.97,10,3,18,0.18
2013-5-31,66,56,48,46,41,36,92,60,39,30.40,30.19,8,3,12,0.00
2013-6-1,70,57,40,47,40,25,97,61,21,30.41,30.14,6,3,10,0.00
2013-6-2,72,58,49,47,43,29,82,60,25,30.14,29.97,14,4,21,0.00
2013-6-3,66,54,47,53,49,42,99,85,49,30.25,30.05,7,2,11,0.39
2013-6-4,72,58,41,50,39,23,99,58,18,30.34,30.24,8,4,13,0.01
2013-6-5,78,62,42,46,41,32,90,51,20,30.26,30.08,12,4,15,0.00
2013-6-6,84,69,52,51,47,44,83,49,26,30.18,30.05,11,4,17,0.00
2013-6-7,85,67,53,57,48,30,95,56,17,30.07,29.93,13,4,20,0.07
2013-6-8,83,67,49,56,42,18,99,50,10,30.11,30.01,11,4,16,0.01
2013-6-9,81,68,51,48,31,14,74,33,10,30.08,29.96,12,4,21,0.00
2013-6-10,80,64,43,44,34,20,78,39,11,30.05,29.90,10,4,20,0.00
2013-6-11,84,65,51,56,43,27,97,53,14,30.12,29.93,18,4,27,0.27
2013-6-12,72,59,49,52,45,35,97,65,28,30.20,30.10,6,3,10,0.01
2013-6-13,68,58,50,53,46,33,95,68,28,30.17,30.10,10,4,15,0.01
2013-6-14,67,54,43,47,41,36,90,63,36,30.23,30.15,12,4,18,0.00
2013-6-15,77,61,42,46,39,26,91,51,17,30.24,30.11,11,4,16,0.00
2013-6-16,84,65,45,47,40,29,81,46,14,30.23,30.14,8,4,11,0.00
2013-6-17,86,69,51,62,48,40,80,51,23,30.19,30.01,6,4,9,0.04
2013-6-18,88,71,54,58,50,45,80,52,24,30.01,29.81,10,4,16,0.01
2013-6-19,64,54,51,57,51,46,99,89,68,30.00,29.84,12,3,21,0.24
2013-6-20,56,51,47,50,47,42,99,88,61,30.20,29.87,10,4,15,0.48
2013-6-21,68,55,45,50,45,42,97,74,43,30.23,30.18,9,3,14,0.02
2013-6-22,72,58,43,50,46,42,99,68,38,30.22,30.10,11,4,17,0.01
2013-6-23,77,62,44,52,45,40,96,59,29,30.12,29.87,10,4,14,0.00
2013-6-24,70,60,56,59,54,50,97,81,62,29.88,29.81,7,2,10,0.27
2013-6-25,75,61,53,61,53,41,99,79,32,30.05,29.86,8,2,13,0.21
2013-6-26,80,64,51,56,51,41,99,68,28,30.25,30.04,8,2,14,0.00
2013-6-27,85,69,51,56,50,46,88,54,28,30.36,30.25,9,3,13,0.00
2013-6-28,91,74,55,61,55,50,93,57,27,30.42,30.26,7,3,11,0.00
2013-6-29,86,73,60,62,58,50,90,61,31,30.31,30.15,13,5,18,0.00
2013-6-30,94,77,59,60,54,42,84,51,18,30.26,30.17,8,3,11,0.00
2013-7-1,101,81,61,65,56,34,85,49,10,30.30,30.16,6,3,10,0.00
2013-7-2,98,82,62,63,57,52,78,47,23,30.22,30.05,7,3,14,0.00
2013-7-3,95,81,64,62,49,27,80,40,11,30.12,30.03,11,4,17,0.00
2013-7-4,91,75,57,56,45,25,80,41,11,30.09,29.91,12,4,16,0.00
2013-7-5,88,72,54,50,43,27,78,40,12,30.03,29.88,8,4,14,0.00
2013-7-6,85,69,51,49,44,33,80,46,17,30.10,29.99,9,4,13,0.00
2013-7-7,88,72,54,50,45,30,76,43,14,30.08,29.99,8,4,13,0.00
2013-7-8,83,67,55,62,50,37,82,57,26,30.24,30.01,12,4,17,0.09
2013-7-9,85,69,48,52,46,31,92,50,15,30.35,30.19,9,4,11,0.00
2013-7-10,93,74,51,52,44,26,85,43,10,30.21,29.93,9,4,12,0.00
2013-7-11,87,74,60,55,35,10,72,33,10,30.00,29.93,11,4,17,0.00
2013-7-12,86,68,46,43,29,9,61,27,10,30.08,29.99,10,4,13,0.00
2013-7-13,84,70,56,48,35,16,71,35,10,30.24,30.07,12,4,18,0.00
2013-7-14,87,69,50,45,36,20,70,37,10,30.28,30.09,10,5,13,0.00
2013-7-15,92,71,47,46,36,22,76,36,10,30.17,30.05,12,4,16,0.00
2013-7-16,90,74,56,48,42,34,64,36,15,30.27,30.11,10,4,15,0.00
2013-7-17,93,76,61,68,50,39,85,43,19,30.24,30.09,7,3,14,0.31
2013-7-18,94,76,56,54,45,24,81,40,10,30.29,30.18,8,3,12,0.00
2013-7-19,95,75,54,51,41,27,71,36,10,30.26,30.10,11,3,16,0.00
2013-7-20,96,76,56,49,39,23,69,34,10,30.16,29.97,10,4,14,0.00
2013-7-21,98,76,53,46,36,22,66,29,10,30.04,29.93,9,3,12,0.00
2013-7-22,97,76,55,48,38,24,65,31,10,30.10,29.98,10,4,15,0.00
2013-7-23,94,77,56,49,40,26,71,33,10,30.21,30.09,10,4,15,0.00
2013-7-24,97,78,58,49,39,26,55,29,10,30.19,30.08,7,4,12,0.00
2013-7-25,95,79,58,52,45,30,71,35,11,30.25,30.13,7,3,10,0.00
2013-7-26,96,78,56,48,37,18,63,29,10,30.26,30.09,10,4,14,0.00
2013-7-27,93,74,53,47,34,21,65,28,10,30.12,30.00,9,3,16,0.00
2013-7-28,89,72,51,43,34,23,62,30,10,30.06,29.96,11,4,17,0.00
2013-7-29,85,71,57,48,43,38,63,39,19,30.14,30.05,10,3,17,0.00
2013-7-30,86,70,53,48,45,36,77,45,19,30.27,30.14,9,4,13,0.00
2013-7-31,94,73,53,48,38,22,70,36,10,30.33,30.13,6,3,9,0.00
2013-8-1,78,68,58,60,53,45,89,60,34,30.18,30.07,9,3,14,0.00
2013-8-2,63,59,55,59,57,55,99,94,82,30.25,30.06,6,2,10,0.70
2013-8-3,79,63,50,58,53,48,99,73,35,30.28,30.20,6,2,10,0.01
2013-8-4,84,67,49,56,52,45,99,63,29,30.25,30.13,10,4,14,0.00
2013-8-5,86,67,53,61,53,49,91,64,30,30.17,30.07,10,3,14,0.07
2013-8-6,89,69,51,54,49,38,91,55,18,30.21,30.09,8,4,11,0.00
2013-8-7,91,71,57,56,50,40,83,53,19,30.16,30.06,8,3,14,0.00
2013-8-8,92,79,56,56,48,37,76,39,15,30.17,30.08,12,4,18,0.00
2013-8-9,93,76,59,55,52,42,79,48,21,30.21,30.04,7,4,11,0.00
2013-8-10,94,76,60,56,48,25,78,44,10,30.18,30.06,5,3,9,0.00
2013-8-11,92,73,60,59,53,38,76,52,16,30.19,30.09,6,4,10,0.00
2013-8-12,95,77,61,55,47,28,72,40,10,30.20,30.09,12,3,18,0.00
2013-8-13,87,71,59,59,54,48,95,59,27,30.28,30.14,8,3,13,0.06
2013-8-14,89,71,52,54,48,27,87,51,13,30.24,30.10,8,3,11,0.00
2013-8-15,94,74,55,53,44,30,73,40,11,30.15,30.03,6,3,10,0.00
2013-8-16,96,75,56,50,44,30,70,38,11,30.14,30.07,8,3,14,0.00
2013-8-17,91,75,61,58,49,31,84,45,15,30.19,30.08,10,3,16,0.00
2013-8-18,90,74,56,54,42,23,78,38,10,30.20,30.11,11,4,17,0.00
2013-8-19,90,72,52,54,43,28,80,42,12,30.18,30.05,11,4,21,0.00
2013-8-20,90,73,54,50,36,18,79,34,10,30.19,30.08,9,3,14,0.00
2013-8-21,90,69,48,40,33,20,73,34,10,30.28,30.14,7,3,9,0.00
2013-8-22,89,71,50,48,38,23,64,35,10,30.22,30.01,6,3,9,0.00
2013-8-23,85,71,60,62,53,46,85,56,27,30.06,29.93,12,3,15,0.17
2013-8-24,89,70,52,57,46,21,93,52,12,30.08,29.92,7,3,14,0.00
2013-8-25,90,72,57,56,47,38,84,47,17,30.14,29.95,22,3,29,0.08
2013-8-26,85,69,53,56,50,41,95,56,24,30.19,30.06,16,3,25,0.05
2013-8-27,87,69,50,52,46,40,88,50,20,30.17,30.02,8,3,13,0.00
2013-8-28,86,66,56,61,52,46,87,60,33,30.21,30.04,8,3,11,0.04
2013-8-29,91,66,55,62,56,50,98,73,26,30.22,30.02,12,3,21,0.11
2013-8-30,84,65,51,62,51,40,99,69,23,30.27,30.18,12,3,24,0.01
2013-8-31,86,66,47,51,44,28,91,52,15,30.30,30.15,7,3,9,0.00
2013-9-1,93,70,49,54,43,32,78,46,12,30.18,30.00,8,3,11,0.00
2013-9-2,86,71,60,59,49,35,75,48,16,30.13,30.02,10,3,14,0.00
2013-9-3,70,63,57,59,56,52,94,78,66,30.24,30.12,6,2,8,0.00
2013-9-4,91,70,52,60,55,51,97,65,28,30.27,30.14,6,3,8,0.00
2013-9-5,81,69,62,65,58,52,93,70,50,30.25,30.08,8,3,11,0.17
2013-9-6,83,68,57,65,58,44,99,75,41,30.22,30.12,9,3,12,0.02
2013-9-7,84,68,56,55,52,46,80,59,33,30.24,30.12,8,3,11,0.00
2013-9-8,57,55,52,53,51,49,93,87,78,30.18,30.16,4,2,4,0.00
2013-9-9,79,68,54,58,56,53,99,68,42,30.19,30.11,7,3,10,0.01
2013-9-10,84,66,51,57,53,50,99,68,32,30.25,30.16,7,3,10,0.00
2013-9-11,95,70,53,58,49,31,92,56,12,30.34,30.22,6,3,9,0.00
2013-9-12,95,71,53,51,46,28,77,48,10,30.31,30.09,6,3,8,0.00
2013-9-13,93,68,53,56,50,43,79,56,19,30.09,29.96,6,3,11,0.00
2013-9-14,93,72,57,52,46,32,76,46,13,30.17,30.02,6,3,11,0.00
2013-9-15,90,69,51,55,48,41,80,52,19,30.18,29.92,6,3,10,0.00
2013-9-16,84,65,53,60,52,45,89,64,37,30.01,29.91,8,2,14,0.05
2013-9-17,77,60,45,53,45,34,97,65,23,30.01,29.75,13,3,22,0.09
2013-9-18,54,50,47,53,49,46,99,96,87,30.23,29.83,8,2,14,0.99
2013-9-19,69,53,44,52,45,39,99,78,38,30.33,30.19,8,2,11,0.01
2013-9-20,77,55,39,48,43,38,99,69,26,30.19,29.85,5,3,8,0.00
2013-9-21,70,55,44,55,46,41,89,74,40,29.86,29.81,7,3,11,0.01
2013-9-22,71,54,42,49,44,39,97,70,36,29.87,29.81,10,3,17,0.02
2013-9-23,64,53,45,46,42,36,92,70,41,30.10,29.85,12,4,22,0.04
2013-9-24,54,48,42,50,45,42,99,91,74,30.09,29.91,8,2,11,0.11
2013-9-25,54,47,41,47,43,36,99,86,59,30.01,29.89,12,4,17,0.19
2013-9-26,62,46,35,40,33,19,89,65,23,30.16,30.00,9,4,13,0.00
2013-9-27,55,43,30,40,34,29,98,74,44,30.15,30.05,13,3,19,0.00
2013-9-28,63,53,43,45,41,35,86,64,48,30.06,29.78,11,4,16,0.00
2013-9-29,60,53,48,49,40,36,88,63,44,29.85,29.61,17,6,24,0.12
2013-9-30,59,50,42,45,39,32,99,69,39,30.01,29.63,17,6,27,0.11
2013-10-1,63,47,37,41,36,28,94,69,28,30.20,30.01,10,3,19,0.01
2013-10-2,61,45,33,40,34,28,98,68,32,30.27,30.14,6,3,11,0.00
2013-10-3,58,43,33,34,29,23,85,61,32,30.52,30.16,10,4,14,0.00
2013-10-4,56,41,27,34,29,25,93,67,35,30.61,30.49,11,4,14,0.00
2013-10-5,61,42,28,38,31,24,94,69,25,30.53,30.40,8,3,14,0.00
2013-10-6,68,47,31,42,35,30,96,69,27,30.42,30.11,6,2,8,0.00
2013-10-7,69,48,30,45,35,26,99,67,23,30.11,29.92,9,3,16,0.01
2013-10-8,51,46,37,46,37,30,98,72,49,30.15,29.98,8,3,13,0.04
2013-10-9,64,43,31,42,36,30,99,80,33,30.22,30.02,6,3,9,0.01
2013-10-10,49,39,30,43,37,29,99,92,72,30.05,29.98,6,2,9,0.01
2013-10-11,58,44,34,39,34,30,93,69,35,30.20,30.04,7,3,10,0.00
2013-10-12,53,40,33,37,32,29,86,75,49,30.26,30.17,7,3,9,0.00
2013-10-13,60,42,29,37,32,27,95,70,34,30.36,30.26,5,3,8,0.00
2013-10-14,65,45,32,34,30,20,82,59,19,30.50,30.36,8,3,12,0.00
2013-10-15,55,39,25,39,30,23,96,72,41,30.52,30.29,9,3,14,0.00
2013-10-16,53,40,34,42,35,30,99,84,60,30.32,30.23,4,1,5,0.05
2013-10-17,61,42,32,40,35,31,99,80,41,30.38,30.29,8,2,11,0.00
2013-10-18,59,40,28,40,34,28,99,81,45,30.40,30.25,6,2,9,0.00
2013-10-19,56,40,29,41,35,29,99,86,54,30.27,30.15,4,1,7,0.00
2013-10-20,61,44,32,40,36,31,99,78,43,30.28,30.20,7,2,10,0.00
2013-10-21,63,44,30,43,37,30,99,79,48,30.36,30.27,6,2,8,0.00
2013-10-22,64,45,31,45,38,30,99,81,47,30.38,30.26,5,2,8,0.00
2013-10-23,66,45,32,43,38,31,99,80,40,30.35,30.26,5,2,8,0.00
2013-10-24,64,44,32,44,38,31,99,82,43,30.34,30.23,6,2,8,0.00
2013-10-25,61,42,31,45,37,31,99,85,47,30.42,30.27,6,2,8,0.01
2013-10-26,46,35,28,40,34,28,99,98,90,30.46,30.21,4,2,5,0.01
2013-10-27,49,38,32,40,29,14,99,75,35,30.32,30.02,19,6,30,0.02
2013-10-28,43,34,26,25,14,6,71,46,23,30.35,30.19,11,3,17,0.00
2013-10-29,47,30,19,25,18,13,82,62,31,30.19,30.07,7,3,11,0.00
2013-10-30,49,33,17,30,23,15,94,69,44,30.16,30.09,8,2,11,0.00
2013-10-31,45,38,31,38,32,26,96,81,59,30.22,30.10,6,2,10,0.00
2013-11-1,59,38,26,38,30,26,99,77,31,30.33,30.21,8,2,14,0.00
2013-11-2,45,37,28,41,33,26,98,88,52,30.22,29.75,7,3,10,0.08
2013-11-3,42,37,32,33,30,26,99,75,52,30.08,29.81,8,3,15,0.02
2013-11-4,44,34,27,34,29,23,99,84,59,30.21,30.07,5,1,10,0.01
2013-11-5,40,34,31,30,23,16,98,65,42,30.26,30.21,9,4,15,0.00
2013-11-6,43,32,25,35,31,24,99,95,73,30.45,30.23,5,1,6,0.09
2013-11-7,41,32,23,38,31,23,99,97,78,30.43,29.88,10,1,17,0.06
2013-11-8,53,42,36,37,33,29,95,72,50,30.23,29.93,14,4,21,0.00
2013-11-9,51,37,29,35,31,27,96,78,50,30.32,30.24,7,2,9,0.01
2013-11-10,36,34,33,36,34,32,99,99,90,30.37,30.25,4,2,6,0.60
2013-11-11,43,36,31,38,35,30,99,95,81,30.55,30.37,7,2,10,0.05
2013-11-12,44,38,34,39,36,34,99,93,77,30.53,30.40,4,2,6,0.00
2013-11-13,60,44,37,42,36,31,99,74,41,30.41,30.30,13,4,18,0.04
2013-11-14,54,43,39,38,33,28,86,66,44,30.32,29.93,10,3,15,0.00
2013-11-15,43,38,34,34,30,25,99,73,51,29.93,29.51,10,4,21,0.04
2013-11-16,39,35,29,38,32,24,99,90,67,29.71,29.38,9,3,17,0.13
2013-11-17,49,36,26,32,28,20,99,73,37,29.99,29.71,12,4,19,0.01
2013-11-18,48,43,37,34,31,28,83,62,48,30.04,29.84,10,4,14,0.00
2013-11-19,55,46,40,38,35,32,85,67,47,29.84,29.67,16,4,27,0.01
2013-11-20,41,30,15,34,14,1,93,55,22,30.45,29.79,15,5,21,0.00
2013-11-21,36,19,9,13,8,4,82,64,31,30.69,30.45,5,3,8,0.00
2013-11-22,39,21,11,17,12,7,87,69,38,30.79,30.68,6,3,8,0.00
2013-11-23,44,21,0,35,13,8,99,70,28,30.74,29.66,5,2,8,0.28
2013-11-24,35,24,17,23,18,12,84,77,60,29.82,29.71,5,2,6,0.01
2013-11-25,36,25,18,26,20,14,88,81,68,29.92,29.80,4,2,7,0.00
2013-11-26,35,26,19,27,22,16,90,84,70,29.88,29.66,5,2,8,0.00
2013-11-27,29,26,24,25,24,22,94,92,88,29.71,29.65,4,2,7,0.00
2013-11-28,29,26,23,27,24,19,95,94,93,29.69,29.63,6,2,8,0.00
2013-11-29,30,28,26,29,27,23,97,96,95,29.69,29.64,4,2,6,0.00
2013-11-30,35,32,30,33,31,29,99,98,96,29.70,29.61,3,1,4,0.06
2013-12-1,43,35,32,41,35,28,99,99,99,29.61,29.13,3,1,4,0.20
2013-12-2,40,29,18,39,27,10,99,92,70,29.51,29.03,18,7,26,0.04
2013-12-3,22,16,13,11,8,6,79,69,58,29.71,29.51,13,6,22,0.00
2013-12-4,19,10,3,9,4,-3,85,75,64,29.75,29.68,5,3,8,0.00
2013-12-5,15,6,1,7,0,-4,82,78,71,29.76,29.67,6,3,8,0.00
2013-12-6,10,2,-4,-3,-7,-14,74,65,55,29.84,29.75,9,4,13,0.00
2013-12-7,5,-4,-9,-7,-12,-17,71,66,57,29.79,29.63,8,4,12,0.00
2013-12-8,9,2,-9,2,-4,-16,80,75,70,29.82,29.69,5,2,7,0.00
2013-12-9,15,11,6,11,6,0,87,82,78,29.83,29.68,4,2,5,0.00
2013-12-10,21,17,14,18,15,11,94,91,87,29.81,29.64,3,1,5,0.00
2013-12-11,28,22,18,25,21,16,94,93,91,29.84,29.73,5,2,6,0.00
2013-12-12,28,25,20,26,23,18,94,92,88,29.74,29.53,4,2,5,0.00
2013-12-13,34,30,26,33,29,24,98,96,94,29.78,29.53,4,1,4,0.01
2013-12-14,34,32,30,34,32,29,99,99,97,29.80,29.67,3,1,5,0.00
2013-12-15,43,34,25,38,32,25,99,93,78,29.70,29.60,9,3,14,0.00
2013-12-16,46,38,28,35,31,26,91,75,58,29.80,29.62,11,4,17,0.00
2013-12-17,42,30,24,33,27,23,95,88,68,29.78,29.36,4,2,6,0.00
2013-12-18,43,35,22,34,30,20,94,83,68,29.38,29.24,15,4,19,0.01
2013-12-19,24,17,13,20,11,5,92,75,60,29.66,29.39,18,6,27,0.00
2013-12-20,24,20,16,21,17,11,93,87,81,29.51,29.11,4,2,6,0.00
2013-12-21,25,23,20,22,21,18,94,92,87,29.50,29.16,4,2,7,0.00
2013-12-22,29,25,24,25,23,20,93,91,86,29.71,29.49,5,2,7,0.00
2013-12-23,41,31,26,39,30,22,99,97,93,29.70,29.38,11,1,15,0.11
2013-12-24,49,32,16,43,28,14,99,87,76,29.92,29.55,8,3,14,0.14
2013-12-25,29,23,16,26,21,14,93,90,85,29.95,29.78,5,2,8,0.00
2013-12-26,33,29,25,30,27,21,94,92,76,29.84,29.68,49,2,49,0.00
2013-12-27,37,26,18,35,24,-6,99,91,31,29.73,29.43,11,2,15,0.30
2013-12-28,37,27,0,32,29,27,92,74,83,29.77,29.47,7,2,14,0.00
2013-12-29,35,30,27,30,28,19,94,91,84,29.96,29.78,8,2,10,0.00
2013-12-30,33,29,23,32,27,21,97,94,90,29.85,29.64,4,2,7,0.00
2013-12-31,40,36,32,36,33,29,99,89,81,29.83,29.62,8,3,12,0.00
2014-1-1,36,29,23,30,26,22,94,89,78,30.00,29.83,4,2,5,0.00
2014-1-2,35,30,24,33,28,5,98,94,28,29.95,29.37,4,2,5,0.01